When you browse on this site, cookies collect data to enhance your experience and personalize the content and advertising you see.
Visit our Privacy Policy to learn more. By continuing to use the site, you agree to this use of cookies and data.
  • En España
  • Lista de países
  • Para 7 días
  • Temperatura del agua
  • Mapa Satelital
  • El tiempo en el mapa
  • Informadores
  • user-avatar
    Iniciar sesión

    Tiempo cada hora Bangalore

    Hoy, 15 Julio, Lunes

    Tiempo Temperatura Precipitaciones Viento Presión Humedad
    00:00 +24°C° 0 mm 3 mps 682 mmHg 78%
    01:00 +24°C° 0 mm 3 mps 682 mmHg 79%
    02:00 +24°C° 0 mm 3 mps 681 mmHg 80%
    03:00 +23°C° 0 mm 4 mps 681 mmHg 82%
    04:00 +23°C° 0 mm 4 mps 681 mmHg 84%
    05:00 +24°C° 0 mm 3 mps 681 mmHg 84%
    06:00 +23°C° 0 mm 4 mps 681 mmHg 81%
    07:00 +25°C° 0 mm 4 mps 682 mmHg 79%
    08:00 +25°C° 0 mm 5 mps 682 mmHg 76%
    09:00 +27°C° 0 mm 5 mps 682 mmHg 69%
    10:00 +28°C° 0 mm 5 mps 682 mmHg 62%
    11:00 +30°C° 0 mm 4 mps 683 mmHg 55%
    12:00 +30°C° 0.2 mm 5 mps 682 mmHg 53%
    13:00 +32°C° 0.2 mm 5 mps 681 mmHg 51%
    14:00 +32°C° 0.2 mm 5 mps 681 mmHg 50%
    15:00 +32°C° 0.4 mm 4 mps 681 mmHg 51%
    16:00 +32°C° 0.4 mm 4 mps 681 mmHg 52%
    17:00 +30°C° 0 mm 3 mps 681 mmHg 51%
    18:00 +29°C° 1.8 mm 4 mps 681 mmHg 57%
    19:00 +28°C° 1.8 mm 4 mps 681 mmHg 64%
    20:00 +26°C° 1.8 mm 5 mps 682 mmHg 70%
    21:00 +26°C° 1.2 mm 4 mps 682 mmHg 72%
    22:00 +26°C° 1.2 mm 4 mps 682 mmHg 74%
    23:00 +25°C° 1.2 mm 4 mps 682 mmHg 77%

    Mañana, 16 Julio, Martes

    Tiempo Temperatura Precipitaciones Viento Presión Humedad
    00:00 +25°C° 0.6 mm 4 mps 682 mmHg 78%
    01:00 +25°C° 0.6 mm 4 mps 681 mmHg 80%
    02:00 +23°C° 0.6 mm 4 mps 681 mmHg 81%
    03:00 +23°C° 0 mm 4 mps 681 mmHg 83%
    04:00 +23°C° 0 mm 4 mps 681 mmHg 84%
    05:00 +22°C° 0 mm 3 mps 681 mmHg 86%
    06:00 +23°C° 0 mm 4 mps 681 mmHg 83%
    07:00 +23°C° 0 mm 4 mps 682 mmHg 80%
    08:00 +25°C° 0 mm 4 mps 682 mmHg 77%
    09:00 +26°C° 0 mm 5 mps 682 mmHg 71%
    10:00 +28°C° 0 mm 5 mps 683 mmHg 65%
    11:00 +29°C° 0 mm 5 mps 683 mmHg 59%
    12:00 +30°C° 0.1 mm 5 mps 682 mmHg 56%
    13:00 +30°C° 0.1 mm 5 mps 682 mmHg 53%
    14:00 +32°C° 0.1 mm 5 mps 681 mmHg 50%
    15:00 +32°C° 0.4 mm 4 mps 681 mmHg 51%
    16:00 +30°C° 0.4 mm 4 mps 681 mmHg 52%
    17:00 +30°C° 0.4 mm 4 mps 680 mmHg 54%
    18:00 +28°C° 1.8 mm 4 mps 681 mmHg 61%
    19:00 +27°C° 1.8 mm 5 mps 681 mmHg 69%
    20:00 +25°C° 1.8 mm 5 mps 682 mmHg 76%
    21:00 +25°C° 1.5 mm 5 mps 682 mmHg 77%
    22:00 +25°C° 1.5 mm 5 mps 682 mmHg 78%
    23:00 +25°C° 1.5 mm 4 mps 682 mmHg 79%

    Pasado mañana, 17 Julio, Miércoles

    Tiempo Temperatura Precipitaciones Viento Presión Humedad
    00:00 +25°C° 0.6 mm 4 mps 682 mmHg 79%
    01:00 +23°C° 0.6 mm 4 mps 681 mmHg 80%
    02:00 +23°C° 0.6 mm 4 mps 681 mmHg 81%
    03:00 +23°C° 0 mm 4 mps 681 mmHg 81%
    04:00 +23°C° 0 mm 4 mps 681 mmHg 82%
    05:00 +23°C° 0 mm 4 mps 681 mmHg 83%
    06:00 +23°C° 0 mm 4 mps 681 mmHg 82%
    07:00 +23°C° 0 mm 4 mps 682 mmHg 82%
    08:00 +23°C° 0 mm 5 mps 682 mmHg 81%
    09:00 +25°C° 0 mm 5 mps 682 mmHg 76%
    10:00 +27°C° 0 mm 5 mps 682 mmHg 70%
    11:00 +28°C° 0 mm 5 mps 682 mmHg 65%
    12:00 +28°C° 0.1 mm 5 mps 681 mmHg 62%
    13:00 +29°C° 0.1 mm 5 mps 681 mmHg 59%
    14:00 +30°C° 0.1 mm 5 mps 680 mmHg 56%
    15:00 +29°C° 0.8 mm 5 mps 680 mmHg 58%
    16:00 +29°C° 0.8 mm 5 mps 680 mmHg 59%
    17:00 +28°C° 0.8 mm 4 mps 680 mmHg 61%
    18:00 +27°C° 2.3 mm 4 mps 680 mmHg 68%
    19:00 +26°C° 2.3 mm 5 mps 680 mmHg 75%
    20:00 +25°C° 2.3 mm 5 mps 680 mmHg 82%
    21:00 +25°C° 1.3 mm 5 mps 681 mmHg 79%
    22:00 +23°C° 1.3 mm 5 mps 681 mmHg 81%
    23:00 +23°C° 1.3 mm 6 mps 681 mmHg 82%

    18 Julio, Jueves

    Tiempo Temperatura Precipitaciones Viento Presión Humedad
    00:00 +23°C° 0.2 mm 6 mps 681 mmHg 83%
    01:00 +22°C° 0.2 mm 5 mps 680 mmHg 84%
    02:00 +22°C° 0.2 mm 5 mps 680 mmHg 86%
    03:00 +22°C° 0 mm 5 mps 680 mmHg 86%
    04:00 +22°C° 0 mm 5 mps 679 mmHg 86%
    05:00 +21°C° 0 mm 5 mps 679 mmHg 86%
    06:00 +22°C° 0 mm 5 mps 680 mmHg 82%
    07:00 +23°C° 0 mm 5 mps 680 mmHg 79%
    08:00 +23°C° 0 mm 6 mps 681 mmHg 75%
    09:00 +24°C° 0 mm 6 mps 681 mmHg 70%
    10:00 +27°C° 0 mm 6 mps 681 mmHg 65%
    11:00 +28°C° 0 mm 6 mps 681 mmHg 60%
    12:00 +29°C° 0 mm 6 mps 680 mmHg 58%
    13:00 +29°C° 0 mm 6 mps 680 mmHg 55%
    14:00 +30°C° 0 mm 6 mps 679 mmHg 53%
    15:00 +30°C° 0.6 mm 5 mps 679 mmHg 54%
    16:00 +29°C° 0.6 mm 5 mps 679 mmHg 55%
    17:00 +29°C° 0.6 mm 5 mps 678 mmHg 56%
    18:00 +28°C° 0.5 mm 5 mps 679 mmHg 61%
    19:00 +27°C° 0.5 mm 5 mps 679 mmHg 65%
    20:00 +26°C° 0.5 mm 5 mps 680 mmHg 69%
    21:00 +25°C° 0.4 mm 5 mps 680 mmHg 73%
    22:00 +25°C° 0.4 mm 5 mps 680 mmHg 76%
    23:00 +23°C° 0.4 mm 5 mps 680 mmHg 80%

    19 Julio, Viernes

    Tiempo Temperatura Precipitaciones Viento Presión Humedad
    00:00 +23°C° 0.1 mm 5 mps 679 mmHg 82%
    01:00 +22°C° 0.1 mm 5 mps 679 mmHg 83%
    02:00 +22°C° 0.1 mm 5 mps 679 mmHg 85%
    03:00 +22°C° 0 mm 5 mps 679 mmHg 86%
    04:00 +22°C° 0 mm 5 mps 679 mmHg 87%
    05:00 +21°C° 0 mm 5 mps 679 mmHg 87%
    06:00 +22°C° 0 mm 5 mps 679 mmHg 84%
    07:00 +23°C° 0 mm 5 mps 680 mmHg 81%
    08:00 +23°C° 0 mm 6 mps 680 mmHg 78%
    09:00 +24°C° 0 mm 6 mps 680 mmHg 74%
    10:00 +27°C° 0 mm 6 mps 680 mmHg 70%
    11:00 +28°C° 0 mm 5 mps 680 mmHg 66%
    12:00 +29°C° 0.1 mm 5 mps 679 mmHg 62%
    13:00 +30°C° 0.1 mm 5 mps 679 mmHg 57%
    14:00 +32°C° 0.1 mm 5 mps 679 mmHg 53%
    15:00 +30°C° 1.2 mm 4 mps 678 mmHg 56%
    16:00 +29°C° 1.2 mm 4 mps 678 mmHg 58%
    17:00 +29°C° 1.2 mm 4 mps 678 mmHg 60%
    18:00 +28°C° 1.6 mm 3 mps 678 mmHg 65%
    19:00 +27°C° 1.6 mm 3 mps 679 mmHg 69%
    20:00 +26°C° 1.6 mm 3 mps 679 mmHg 74%
    21:00 +26°C° 1.1 mm 3 mps 679 mmHg 75%
    22:00 +26°C° 1.1 mm 4 mps 679 mmHg 77%
    23:00 +25°C° 1.1 mm 5 mps 679 mmHg 79%

    20 Julio, Sábado

    Tiempo Temperatura Precipitaciones Viento Presión Humedad
    00:00 +25°C° 1.1 mm 5 mps 679 mmHg 80%
    01:00 +23°C° 1.1 mm 5 mps 678 mmHg 82%
    02:00 +23°C° 1.1 mm 5 mps 678 mmHg 84%
    03:00 +23°C° 0.2 mm 5 mps 678 mmHg 84%
    04:00 +22°C° 0.2 mm 5 mps 678 mmHg 85%
    05:00 +22°C° 0.2 mm 4 mps 678 mmHg 86%
    06:00 +23°C° 0 mm 4 mps 679 mmHg 84%
    07:00 +23°C° 0 mm 5 mps 679 mmHg 82%
    08:00 +23°C° 0 mm 5 mps 680 mmHg 80%
    09:00 +25°C° 0 mm 5 mps 680 mmHg 76%
    10:00 +26°C° 0 mm 5 mps 680 mmHg 72%
    11:00 +27°C° 0 mm 5 mps 680 mmHg 68%
    12:00 +28°C° 0.3 mm 5 mps 679 mmHg 65%
    13:00 +29°C° 0.3 mm 5 mps 679 mmHg 62%
    14:00 +30°C° 0.3 mm 6 mps 678 mmHg 59%
    15:00 +29°C° 1.1 mm 5 mps 678 mmHg 62%
    16:00 +29°C° 1.1 mm 5 mps 678 mmHg 64%
    17:00 +28°C° 1.1 mm 5 mps 678 mmHg 66%
    18:00 +27°C° 1.9 mm 5 mps 678 mmHg 71%
    19:00 +26°C° 1.9 mm 5 mps 678 mmHg 77%
    20:00 +25°C° 1.9 mm 4 mps 679 mmHg 82%
    21:00 +25°C° 1.7 mm 5 mps 679 mmHg 84%
    22:00 +23°C° 1.7 mm 5 mps 679 mmHg 87%
    23:00 +22°C° 1.7 mm 6 mps 679 mmHg 90%
    Mostrar más